Location: Zengebe
(1.4833°N, 32.5167°E)
Time: 23:27:23
(UTC+00:00)

NOSS 3-1 (C) - Pass Details

Date: 07 June 2020
Orbit: 752 x 1456 km, 63.4° (Epoch: 15 June)

Event Time Altitude Azimuth Distance (km) Brightness Sun altitude
Rises 01:22:40 0° 335° (NNW) 4,405 7.0 -32.6°
Reaches altitude 10° 01:25:30 10° 334° (NNW) 3,486 6.4 -32.0°
Maximum altitude 01:34:18 81° 248° (WSW) 1,472 4.1 -30.0°
Drops below altitude 10° 01:43:11 10° 161° (SSE) 3,515 6.3 -28.1°
Sets 01:46:03 0° 160° (SSE) 4,443 6.9 -27.4°
